Flag for Madagascar Weather past 2 weeks in Antananarivo, Madagascar

81 °F

Partly sunny.

Feels Like: 83 °F
Forecast: 65 / 79 °F
Wind: 7 mph from East

Location: Antananarivo / Ivato

Current Time: Nov 30, 2015 at 5:07:04 PM

Latest Report: Nov 30, 2015 at 4:30 PM

Visibility: N/A

Pressure: 30.12 "Hg (26.01 "Hg at 1287m altitude)

Humidity: 66%

Dew point: 68 °F

Location of AntananarivoLocation

Historic Weather in Antananarivo — Graph


Antananarivo temperature yesterday

Maximum temperature yesterday: 86 °F (at 3:00 PM)
Minimum temperature yesterday: 64 °F (at 2:00 AM)
Average temperature yesterday: 72 °F

Past Weeks' High & Low Weather Summary

High91 °F (Nov 16, 1:00 PM)100% (Nov 16, 4:30 AM)30.27 "Hg (Nov 16, 4:30 AM)
Low57 °F (Nov 16, 4:00 AM)23% (Nov 16, 1:00 PM)29.95 "Hg (Nov 24, 2:00 PM)
Average72 °F83%30.11 "Hg
* Reported Nov 15 4:00 PM — Nov 30 4:00 PM, Antananarivo, Weather by CustomWeather, © 2015

Note: Actual official high and low records may vary slightly from our data, if they occured in-between our weather recording intervals... More about our weather records


Antananarivo weather history for previous 24 hours

Time TempWeatherWind HumidityBarometerVisibility
4:00 PM
Mon, Nov 30
81 °FPartly sunny.3 mph62%30.12 "HgN/A
3:30 PM81 °FPartly sunny.No wind58%30.12 "HgN/A
3:00 PM82 °FPartly sunny.No wind58%30.12 "HgN/A
2:30 PM82 °FPartly sunny.1 mph62%30.15 "HgN/A
2:00 PM82 °FPartly sunny.3 mph58%30.15 "HgN/A
1:30 PM81 °FPartly sunny.3 mph66%30.15 "HgN/A
1:00 PM82 °FPartly sunny.7 mph66%30.18 "HgN/A
12:30 PM82 °FPartly sunny.8 mph70%30.18 "HgN/A
12:00 PM82 °FPartly sunny.6 mph70%30.18 "HgN/A
11:30 AM79 °FPartly sunny.3 mph74%30.21 "HgN/A
11:00 AM77 °FPartly sunny.5 mph74%30.21 "HgN/A
10:30 AM77 °FPartly sunny.5 mph74%30.21 "HgN/A
10:00 AM77 °FPartly sunny.7 mph79%30.24 "HgN/A
9:30 AM73 °FScattered clouds.3 mph83%30.24 "HgN/A
9:00 AM73 °FScattered clouds.3 mph89%30.24 "HgN/A
8:30 AM72 °FScattered clouds.No wind88%30.24 "HgN/A
8:00 AM70 °FBroken clouds.1 mph88%30.24 "HgN/A
7:30 AM70 °FScattered clouds.7 mph88%30.24 "HgN/A
6:30 AM66 °FPartly sunny.No wind100%30.24 "HgN/A
6:00 AM64 °FPartly sunny.No wind100%30.21 "HgN/A
5:30 AM63 °FBroken clouds.No wind100%30.21 "HgN/A
5:00 AM63 °FPartly cloudy.No wind100%30.21 "HgN/A
4:00 AM63 °FPassing clouds.No wind100%30.18 "HgN/A
3:00 AM64 °FPassing clouds.5 mph100%30.18 "HgN/A
1:30 AM64 °FPassing clouds.6 mph100%30.21 "HgN/A
1:00 AM66 °FPassing clouds.9 mph100%30.21 "HgN/A
12:30 AM66 °FPassing clouds.8 mph100%30.24 "HgN/A
12:00 AM68 °FPassing clouds.7 mph100%30.24 "HgN/A
11:30 PM
Sun, Nov 29
68 °FPassing clouds.9 mph100%30.24 "HgN/A
11:00 PM68 °FPassing clouds.8 mph100%30.24 "HgN/A
10:30 PM68 °FThundershowers. Passing clouds.10 mph100%30.24 "HgN/A
10:00 PM68 °FThundershowers. Passing clouds.8 mph100%30.27 "HgN/A
9:30 PM70 °FThundershowers. Passing clouds.8 mph100%30.24 "HgN/A
9:00 PM70 °FThundershowers. Passing clouds.7 mph100%30.24 "HgN/A
8:30 PM70 °FThundershowers. Passing clouds.9 mph100%30.24 "HgN/A
8:00 PM70 °FThundershowers. Passing clouds.10 mph100%30.24 "HgN/A
7:30 PM72 °FThundershowers. Passing clouds.10 mph94%30.21 "HgN/A
7:00 PM72 °FPassing clouds.14 mph94%30.21 "HgN/A
6:30 PM73 °FPassing clouds.13 mph89%30.18 "HgN/A
6:00 PM75 °FScattered clouds.14 mph78%30.18 "HgN/A
5:30 PM79 °FScattered clouds.10 mph74%30.15 "HgN/A
5:00 PM79 °FScattered clouds.10 mph70%30.15 "HgN/A
Weather by CustomWeather, © 2015

See weather overviewHow to use our weather pages